VTPB

Details ICAO VTPB (PHY)
Name Phetchabun
Region Thailand
Timezone Asia/Bangkok (UTC+7.0)
Plans Departing 6
Arriving 4
Stats Elevation 450 ft / 137 m (AMSL)
Location 16.676029° 101.195109°
Runways 1
Magnetic Variation 0.743° W
Sunrise 2018-05-22 22:43:54 UTC / 2018-05-23 05:43:54 Local
Sunset 2018-05-23 11:42:51 UTC / 2018-05-23 18:42:51 Local
Advertisement - Login to hide

Runways

ID Width Length Bearing (true) Bearing (mag) Surface Threshold Offset Overrun Length
18 148 ft / 45 m 6,930 ft / 2,112 m 180.05° 180.79° Asphalt 0 ft / 0 m 197 ft / 60 m
36 148 ft / 45 m 6,930 ft / 2,112 m 0.05° 0.79° Asphalt 0 ft / 0 m 197 ft / 60 m

Approach Navaids

Runway Type Ident Frequency Range Bearing (true) Bearing (mag) Slope Elevation
36 Localiser IPCB 109.10 MHz 18 nm / 33 km 0.05° 0.79° - 447 ft / 136 m (AMSL)
36 Glidescope IPCB 109.10 MHz 10 nm / 19 km 0.05° 0.79° 3.00° 450 ft / 137 m (AMSL)
36 DME IPCB 109.10 MHz 18 nm / 33 km - - - 447 ft / 136 m (AMSL)

Map

Weather


0- 5 10 15 20 25 30 35+ Temperature / ° C

Clouds and Precipitation
Forecast for 2018-05-22 18:00 UTC. Updated 5 hours ago

Ground ~20,000 ft ~40,000 ft Winds

METAR

Not found

TAF

TAF VTPB 221700Z 2218/2318 14005KT 9999 SCT035 TEMPO 2308/2315 VRB15G25KT 5000 TSRA FEW025CB BKN030

Frequencies

Ground 126.70 MHz GND
Approach 126.70 MHz APP
Tower 122.30 MHz TWR
Warning: Do not use this data for real-world aviation or navigation. No guarantee of current accuracy is given.